Location: Unspecified
(0.0000°N, 0.0000°E)
Time: 00:15:00
(UTC+00:00)

SR - All Passes

Search period start: 26 January 2021 00:00
Search period end: 05 February 2021 00:00
Orbit: 575 x 880 km, 66.7° (Epoch: 25 January)

Date Brightness Start Highest point End Pass type
(mag) Time Alt. Az. Time Alt. Az. Time Alt. Az.
26 Jan - 01:54:02 10° SSE 01:57:32 25° ESE 02:01:09 10° NE night (unlit)
26 Jan - 03:37:21 10° W 03:39:19 13° WNW 03:41:19 10° NW night (unlit)
26 Jan - 14:18:24 10° NNW 14:24:16 79° ENE 14:29:52 10° SSE daylight
27 Jan - 02:45:36 10° SW 02:49:34 37° WNW 02:53:44 10° N night (unlit)
27 Jan - 13:29:22 10° N 13:34:33 33° ENE 13:39:32 10° SE daylight
27 Jan - 15:12:20 10° WNW 15:16:21 19° WSW 15:20:15 10° SSW daylight
28 Jan - 01:55:39 10° SSW 01:59:53 69° ESE 02:04:22 10° NNE night (unlit)
28 Jan - 12:42:01 10° NE 12:44:45 13° ENE 12:47:26 10° E daylight
28 Jan - 14:21:08 10° NW 14:26:43 46° WSW 14:32:01 10° S daylight
29 Jan - 01:06:55 10° SSE 01:10:17 22° ESE 01:13:45 10° ENE night (unlit)
29 Jan - 02:49:40 10° WSW 02:52:02 14° WNW 02:54:30 10° NW night (unlit)
29 Jan - 13:31:12 10° NNW 13:37:03 73° ENE 13:42:35 10° SSE daylight
30 Jan - 01:58:15 10° SW 02:02:17 41° WNW 02:06:35 10° N night (unlit)
30 Jan - 12:42:17 10° N 12:47:19 30° ENE 12:52:09 10° SE daylight
30 Jan - 14:24:54 10° WNW 14:29:07 21° WSW 14:33:12 10° SSW daylight
31 Jan - 01:08:24 10° S 01:12:38 62° ESE 01:17:06 10° NNE night (unlit)
31 Jan - 11:55:20 10° NE 11:57:30 12° ENE 11:59:40 10° E daylight
31 Jan - 13:33:52 10° NW 13:39:30 51° WSW 13:44:50 10° S daylight
01 Feb - 00:19:50 10° SSE 00:23:01 20° ESE 00:26:19 10° ENE night (unlit)
01 Feb - 02:02:04 10° WSW 02:04:47 16° WNW 02:07:35 10° NNW night (unlit)
01 Feb - 12:44:01 10° NNW 12:49:49 67° ENE 12:55:19 10° SSE daylight
02 Feb - 01:10:54 10° SW 01:15:01 46° WNW 01:19:25 10° N night (unlit)
02 Feb - 11:55:13 10° NNE 12:00:05 27° ENE 12:04:45 10° SE daylight
02 Feb - 13:37:29 10° WNW 13:41:54 23° WSW 13:46:09 10° SSW daylight
03 Feb - 00:21:10 10° S 00:25:22 55° ESE 00:29:49 10° NNE night (unlit)
03 Feb - 11:08:52 10° NE 11:10:16 11° ENE 11:11:38 10° E daylight
03 Feb - 12:46:35 10° NNW 12:52:17 55° WSW 12:57:38 10° S daylight
03 Feb - 23:32:46 10° SSE 23:35:45 18° ESE 23:38:52 10° ENE night (unlit)
04 Feb - 01:14:31 10° WSW 01:17:30 18° WNW 01:20:37 10° NNW night (unlit)
04 Feb - 11:56:51 10° N 12:02:35 61° ENE 12:08:01 10° SSE daylight
